This demonstration page uses our WeatherBlox Daily Observations layout. Learn more.

38.88101, -77.10428

Hourly Observations for August 18, 2018

Temp ( °F °C ) Dew Point ( °F °C ) Humidity (%) Winds ( mph kmh ) Pressure ( in mb ) Visibility ( mi km ) Precip ( " mm )
12:52 am 00:52 Partly Cloudy 78 25.6 70 21.1 76 76 SW 5 7 29.96 1014 10 16.0934 0 0
1:52 am 01:52 Partly Cloudy 77 25 70 21.1 79 79 SW 3 6 29.95 1014 10 16.0934 0 0
2:41 am 02:41 Mostly Cloudy with Thunderstorms 78 25.6 70 21.1 76 76 SSW 6 9 29.94 1014 10 16.0934 0 0
2:52 am 02:52 Cloudy with Thunderstorms 79 26.1 70 21.1 74 74 NW 8 13 29.95 1014 10 16.0934 0 0
3:02 am 03:02 Mostly Cloudy 78 25.6 69 20.6 74 74 NNW 10 17 29.94 1014 10 16.0934 0 0
3:52 am 03:52 Mostly Cloudy 77 25 67 19.4 71 71 Calm 29.93 1014 10 16.0934 0 0
4:52 am 04:52 Mostly Cloudy 77 25 69 20.6 77 77 SSW 5 7 29.93 1013 10 16.0934 0 0
5:52 am 05:52 Cloudy 77 25 68 20 74 74 SW 5 7 29.93 1013 10 16.0934 0 0
6:52 am 06:52 Cloudy 77 25 68 20 74 74 WSW 3 6 29.93 1014 10 16.0934 0 0
7:52 am 07:52 Sunny 77 25 69 20.6 77 77 SW 5 7 29.93 1014 10 16.0934 0 0
7:55 am 07:55 Mostly Cloudy 78 25.6 69 20.6 74 74 SW 3 6 29.94 1014 10 16.0934 0 0
8:52 am 08:52 Mostly Cloudy 80 26.7 71 21.7 74 74 SSE 3 6 29.92 1013 10 16.0934 0 0
9:52 am 09:52 Mostly Cloudy 82 27.8 73 22.8 74 74 S 6 9 29.92 1013 10 16.0934 0 0
10:52 am 10:52 Mostly Cloudy 84 28.9 71 21.7 65 65 SW 9 15 29.92 1013 10 16.0934 0 0
11:52 am 11:52 Mostly Cloudy 87 30.6 70 21.1 57 57 WSW 9 15 29.91 1013 10 16.0934 0 0
12:52 pm 12:52 Mostly Cloudy 87 30.6 69 20.6 55 55 W 10 17 29.89 1012 10 16.0934 0 0
1:52 pm 13:52 Mostly Cloudy 89 31.7 70 21.1 53 53 W 10 17 29.88 1012 10 16.0934 0 0
2:52 pm 14:52 Mostly Cloudy 88 31.1 69 20.6 54 54 WSW 12 19 29.86 1011 10 16.0934 0 0
3:52 pm 15:52 Cloudy 88 31.1 70 21.1 55 55 W 13 20 29.83 1010 10 16.0934 0 0
4:52 pm 16:52 Cloudy 87 30.6 70 21.1 57 57 WSW 12 19 29.82 1010 10 16.0934 0 0
5:52 pm 17:52 Cloudy 87 30.6 67 19.4 51 51 W 9 15 29.83 1010 10 16.0934 0 0
6:04 pm 18:04 Cloudy 87 30.6 67 19.4 51 51 W 12 19 29.83 1010 10 16.0934 0 0
6:25 pm 18:25 Cloudy 86 30 68 20 55 55 WSW 9 15 29.83 1010 10 16.0934 0 0
6:52 pm 18:52 Mostly Cloudy 86 30 68 20 55 55 WSW 9 15 29.83 1010 10 16.0934 0 0
7:12 pm 19:12 Mostly Cloudy with Thunderstorms 86 30 68 20 55 55 WSW 8 13 29.83 1010 10 16.0934 0 0
7:52 pm 19:52 Cloudy 85 29.4 68 20 57 57 W 8 13 29.83 1010 10 16.0934 0 0
8:52 pm 20:52 Cloudy 83 28.3 69 20.6 63 63 WNW 5 7 29.85 1011 10 16.0934 0 0
9:52 pm 21:52 Cloudy 82 27.8 67 19.4 60 60 WNW 9 15 29.86 1011 10 16.0934 0 0
10:52 pm 22:52 Partly Cloudy 81 27.2 67 19.4 62 62 W 6 9 29.85 1011 10 16.0934 0 0
11:52 pm 23:52 Mostly Clear 80 26.7 68 20 67 67 W 6 9 29.85 1011 10 16.0934 0 0

Powered by AerisWeather